Flag for Belgium

Past Weather in Brussels, Belgium — Yesterday and Last 2 Weeks

Now
50 °F

Sprinkles. Broken clouds.


Feels Like: 44 °F
Forecast: 64 / 54 °F
Wind: 16 mph from Northwest

Location: Brussels National Airport
Current Time: Sep 26, 2020 at 8:30:13 am
Latest Report: Sep 26, 2020 at 7:50 am
Visibility: N/A
Pressure29.50 "Hg
Humidity: 94%
Dew Point: 48 °F
Location of BrusselsLocation

Past Weather in Brussels — Graph

°F

Brussels Temperature Yesterday

Maximum temperature yesterday: 55 °F (at 12:50 pm)
Minimum temperature yesterday: 46 °F (at 4:50 am)
Average temperature yesterday: 50 °F

High & Low Weather Summary for the Past Weeks

 TemperatureHumidityPressure
High93 °F (Sep 15, 3:20 pm)100% (Sep 14, 6:50 am)30.36 "Hg (Sep 14, 6:50 am)
Low45 °F (Sep 18, 6:20 am)23% (Sep 15, 3:50 pm)29.39 "Hg (Sep 25, 5:20 am)
Average62 °F67%29.98 "Hg
* Reported Sep 11 7:50 am — Sep 26 7:20 am, Brussels. Weather by CustomWeather, © 2020

Note: Actual official high and low records may vary slightly from our data, if they occured in-between our weather recording intervals... More about our weather records

Brussels Weather History for the Previous 24 Hours

Scroll right to see more
 ConditionsComfort  
Time TempWeatherWind HumidityBarometerVisibility
7:20 am
Sat, Sep 26
50 °FSprinkles. Partly cloudy.15 mph94%29.47 "HgN/A
6:50 am50 °FPartly cloudy.17 mph94%29.47 "HgN/A
6:20 am52 °FLight rain. Partly cloudy.17 mph88%29.45 "HgN/A
5:50 am52 °FPartly cloudy.17 mph88%29.45 "HgN/A
5:20 am50 °FLight rain. Passing clouds.18 mph94%29.45 "HgN/A
4:50 am52 °FSprinkles. Partly cloudy.20 mph88%29.45 "Hg5 mi
4:20 am52 °FRain showers. Partly cloudy.22 mph88%29.42 "Hg5 mi
3:50 am52 °FRain showers. Partly cloudy.23 mph88%29.42 "Hg5 mi
3:20 am50 °FSprinkles. Passing clouds.25 mph94%29.42 "Hg4 mi
2:50 am50 °FRain showers. Passing clouds.29 mph94%29.42 "Hg4 mi
2:20 am50 °FRain showers. Passing clouds.26 mph88%29.39 "Hg5 mi
1:50 am50 °FRain showers. Passing clouds.25 mph88%29.42 "Hg3 mi
1:20 am48 °FRain. Passing clouds.25 mph94%29.42 "Hg3 mi
12:50 am50 °FLight rain. Partly cloudy.26 mph88%29.42 "Hg4 mi
12:20 am50 °FLight rain. Partly cloudy.24 mph88%29.45 "Hg3 mi
11:50 pm
Fri, Sep 25
50 °FLight rain. Partly cloudy.25 mph88%29.45 "HgN/A
11:20 pm50 °FRain. Partly cloudy.26 mph88%29.45 "HgN/A
10:50 pm50 °FLight rain. Partly cloudy.23 mph88%29.45 "HgN/A
10:20 pm50 °FLight rain. Passing clouds.22 mph88%29.45 "HgN/A
9:20 pm50 °FRain. Partly cloudy.21 mph88%29.45 "Hg4 mi
8:50 pm50 °FLight rain. Partly cloudy.24 mph88%29.45 "HgN/A
8:20 pm50 °FRain. Partly cloudy.20 mph88%29.45 "Hg4 mi
7:50 pm50 °FLight rain. Partly cloudy.21 mph88%29.47 "Hg5 mi
7:20 pm50 °FLight rain. Broken clouds.18 mph88%29.47 "Hg5 mi
6:50 pm50 °FLight rain. Broken clouds.17 mph88%29.47 "Hg6 mi
6:20 pm50 °FLight rain. Broken clouds.16 mph94%29.47 "HgN/A
5:50 pm50 °FSprinkles. Broken clouds.16 mph88%29.47 "HgN/A
5:20 pm52 °FSprinkles. Broken clouds.16 mph88%29.47 "Hg6 mi
4:50 pm52 °FSprinkles. Broken clouds.16 mph82%29.47 "Hg6 mi
4:20 pm52 °FSprinkles. Broken clouds.14 mph88%29.45 "Hg4 mi
3:50 pm54 °FScattered showers. Partly sunny.16 mph77%29.45 "HgN/A
3:20 pm54 °FScattered showers. Scattered clouds.14 mph77%29.45 "HgN/A
2:50 pm54 °FSprinkles. Scattered clouds.14 mph82%29.42 "HgN/A
2:20 pm52 °FSprinkles. Scattered clouds.20 mph82%29.45 "Hg4 mi
1:50 pm55 °FScattered clouds.12 mph72%29.42 "HgN/A
1:20 pm54 °FScattered clouds.10 mph72%29.42 "HgN/A
12:50 pm55 °FScattered clouds.10 mph72%29.42 "HgN/A
12:20 pm52 °FScattered showers. Scattered clouds.10 mph77%29.42 "HgN/A
11:50 am52 °FSprinkles. Partly sunny.7 mph82%29.42 "HgN/A
11:20 am52 °FPartly sunny.9 mph82%29.42 "HgN/A
10:50 am50 °FSprinkles. Scattered clouds.10 mph88%29.42 "HgN/A
10:20 am50 °FSprinkles. Partly sunny.10 mph88%29.39 "HgN/A
9:50 am50 °FPartly sunny.8 mph82%29.39 "HgN/A
9:20 am50 °FPartly sunny.8 mph82%29.39 "HgN/A
8:50 am48 °FPartly sunny.7 mph87%29.39 "HgN/A
8:20 am48 °FPartly sunny.7 mph87%29.39 "HgN/A
Weather by CustomWeather, © 2020

See weather overview